星链-2258 (STARLINK-2258 )

导读 | 星芒AI

STARLINK-2258 是 SpaceX Starlink 卫星互联网项目中的一颗低轨通信卫星。它属于 Starlink 群体的一部分,旨在为全球用户提供高速互联网服务。该卫星采用可重复使用设计,具备先进的推进系统和激光通信技术,以提高数据传输效率和网络稳定性。STARLINK-2258 于 2022 年发射,运行在约 550 公里的轨道高度,是 SpaceX 推动全球宽带覆盖计划的重要组成部分。

基本信息
目录编号:
47860
目录名称:
STARLINK-2258
国际标识:
2021-021A
轨道中心:
EARTH
卫星名称:
星链-2258
卫星全名:
星链-2258 (STARLINK-2258 )
卫星状态:
已陨落 最后检测时间 2025-01-30
发射日期:
2021-03-14 UTC
国别 :
美国 (US)
星等 :
--
轨道信息
数据来源 国际轨道数据
星历时间: 2025-01-30T13:19:23+0800
轨道信息已过期273天
半长轴: 6548.303km
偏心率: 0.0007025
轨道倾角: 53.032°
近地点辐角 229.943°
升交点赤经 262.937°
平近点角 204.135°
近地点: 165.567km
远地点: 174.769km
周期: 87.893分钟
每日圈数: 16.383614
详细信息
固有亮度:
5
最大亮度:
2.5
卫星平台:
Starlink V1.0
覆盖范围:
全球
运营商:
太空探索技术公司
运营商所在国:
美国
制造商(研发单位):
太空探索技术公司
制造商所在国:
美国
使用方式:
暂无
卫星简介
星链(Starlink)计划是由太空探索技术公司(SpaceX)提出的一个巨型低轨卫星互联网星座项目,计划在2019年至2024年间在太空搭建由约1.2万颗卫星组成的“星链”网络,其中1584颗将部署在地球上空550千米处的近地轨道,并从2020年开始工作。该卫星仍在工作。